GLENN Weather Reports


Display with metric or nautical units.
time (UTC)temp
F
wind
direction
speed
MPH
gust
MPH
rain 1hr
in
rain 24hr
in
rain mn
in
humidity
%
barometer
mb
20260902211505 79 189 17.0 29.0 0.00 0.00 0.00 16 1009.1
20260902210018 79 192 20.0 35.0 0.00 0.00 0.00 16 1009.1
20260902204535 79 194 17.0 25.0 0.00 0.00 0.00 18 1009.2
20260902203026 80 190 18.0 33.0 0.00 0.00 0.00 19 1009.1
20260902201517 78 160 22.0 33.0 0.00 0.00 0.00 20 1009.2
20260902200009 79 157 12.0 26.0 0.00 0.00 0.00 25 1009.2
20260902194521 79 177 11.0 30.0 0.00 0.00 0.00 25 1009.6
20260902193024 78 329 5.0 13.0 0.00 0.00 0.00 29 1009.9
20260902191527 75 219 13.0 25.0 0.00 0.00 0.00 28 1010.0
20260902190008 76 169 13.0 24.0 0.00 0.00 0.00 27 1010.1
20260902184516 74 189 13.0 24.0 0.00 0.00 0.00 27 1010.4
20260902183022 75 214 14.0 23.0 0.00 0.00 0.00 30 1010.7
20260902181527 76 186 11.0 25.0 0.00 0.00 0.00 32 1010.7
20260902180008 72 166 12.0 16.0 0.00 0.00 0.00 35 1011.0
20260902174511 72 196 9.0 18.0 0.00 0.00 0.00 41 1011.2
20260902173035 67 183 2.0 8.0 0.00 0.00 0.00 61 1011.4
20260902171520 67 326 2.0 3.0 0.00 0.00 0.00 59 1011.3
20260902170027 66 345 0.0 2.0 0.00 0.00 0.00 61 1011.3
20260902164510 65 298 1.0 4.0 0.00 0.00 0.00 63 1011.4
20260902163014 65 352 0.0 3.0 0.00 0.00 0.00 60 1011.3
20260902161526 64 325 1.0 3.0 0.00 0.00 0.00 66 1011.2
20260902160024 61 65 2.0 4.0 0.00 0.00 0.00 67 1011.5
20260902154531 60 342 0.0 3.0 0.00 0.00 0.00 68 1011.6
20260902153014 60 342 0.0 2.0 0.00 0.00 0.00 69 1011.7
20260902151516 60 16 2.0 3.0 0.00 0.00 0.00 68 1012.0
20260902150024 59 13 0.0 0.0 0.00 0.00 0.00 71 1012.0
20260902144529 58 178 1.0 2.0 0.00 0.00 0.00 73 1012.2
20260902143030 57 208 1.0 3.0 0.00 0.00 0.00 74 1012.4
20260902141515 56 120 0.0 0.0 0.00 0.00 0.00 80 1012.5
20260902140033 54 124 0.0 2.0 0.00 0.00 0.00 84 1012.8
20260902134526 52 122 2.0 3.0 0.00 0.00 0.00 84 1013.0
20260902133006 52 360 0.0 2.0 0.00 0.00 0.00 84 1012.9
20260902131513 51 326 0.0 2.0 0.00 0.00 0.00 84 1012.7
20260902130021 51 24 1.0 3.0 0.00 0.00 0.00 84 1012.6
20260902124507 52 62 0.0 0.0 0.00 0.00 0.00 80 1012.6
20260902123017 53 18 0.0 0.0 0.00 0.00 0.00 78 1012.7
20260902121509 55 108 2.0 3.0 0.00 0.00 0.00 72 1012.8
20260902120017 58 17 0.0 3.0 0.00 0.00 0.00 61 1012.8
20260902114526 60 75 1.0 2.0 0.00 0.00 0.00 57 1012.8
20260902113004 59 136 1.0 4.0 0.00 0.00 0.00 60 1013.0
20260902111528 58 148 7.0 9.0 0.00 0.00 0.00 64 1013.1
20260902110039 56 157 6.0 12.0 0.00 0.00 0.00 73 1013.3
20260902104527 56 137 2.0 3.0 0.00 0.00 0.00 74 1013.7
20260902103024 56 36 1.0 4.0 0.00 0.00 0.00 76 1014.2
20260902101504 55 95 2.0 2.0 0.00 0.00 0.00 79 1015.0
20260902100010 56 200 3.0 12.0 0.00 0.00 0.00 76 1015.2
20260902094515 57 234 1.0 9.0 0.00 0.00 0.00 72 1014.4
20260902093023 57 139 6.0 9.0 0.00 0.00 0.00 74 1015.1
20260902091527 57 168 4.0 7.0 0.00 0.00 0.00 76 1015.7
20260902090008 58 207 3.0 5.0 0.00 0.00 0.00 74 1015.9
20260902084515 58 63 2.0 3.0 0.00 0.00 0.00 70 1015.6
20260902083019 60 57 0.0 5.0 0.00 0.00 0.00 67 1015.8
20260902081528 61 324 2.0 9.0 0.00 0.00 0.00 60 1016.1
20260902080029 62 337 1.0 6.0 0.00 0.00 0.00 56 1015.6
20260902074512 62 360 0.0 6.0 0.00 0.00 0.00 58 1015.6
20260902073019 62 20 2.0 9.0 0.00 0.00 0.00 58 1015.6
20260902071533 62 174 1.0 10.0 0.00 0.00 0.00 55 1015.5
20260902070031 62 15 2.0 5.0 0.00 0.00 0.00 54 1015.2
20260902064532 61 59 1.0 5.0 0.00 0.00 0.00 57 1014.7
20260902063028 61 101 4.0 9.0 0.00 0.00 0.00 57 1014.5
20260902061539 66 254 1.0 6.0 0.00 0.00 0.00 46 1013.9
20260902060033 68 124 3.0 4.0 0.00 0.00 0.00 40 1013.3
20260902054543 69 99 2.0 7.0 0.00 0.00 0.00 39 1013.0
20260902053033 68 105 4.0 7.0 0.00 0.00 0.00 39 1012.9
20260902051517 69 134 5.0 14.0 0.00 0.00 0.00 39 1012.8
20260902050026 70 141 8.0 13.0 0.00 0.00 0.00 37 1013.2
20260902044529 70 163 7.0 15.0 0.00 0.00 0.00 38 1013.3
20260902043015 68 157 7.0 9.0 0.00 0.00 0.00 40 1013.1
20260902041519 68 123 3.0 5.0 0.00 0.00 0.00 43 1012.9
20260902040025 68 120 2.0 8.0 0.00 0.00 0.00 44 1013.0
20260902034505 69 100 6.0 9.0 0.00 0.00 0.00 44 1013.0
20260902033012 70 119 7.0 14.0 0.00 0.00 0.00 43 1013.0
20260902031512 71 134 8.0 17.0 0.00 0.00 0.00 41 1013.0
20260902030020 71 123 9.0 14.0 0.00 0.00 0.00 41 1012.8
20260902024505 70 110 7.0 10.0 0.00 0.00 0.00 42 1012.5
20260902023004 71 111 9.0 12.0 0.00 0.00 0.00 40 1012.5
20260902021517 70 95 6.0 9.0 0.00 0.00 0.00 42 1012.3
20260902020018 70 129 7.0 11.0 0.00 0.00 0.00 41 1012.5
20260902014531 71 131 7.0 10.0 0.00 0.00 0.00 41 1012.5
20260902013004 72 90 10.0 16.0 0.00 0.00 0.00 40 1012.1
20260902011510 73 88 7.0 11.0 0.00 0.00 0.00 39 1012.3
20260902010013 74 92 7.0 11.0 0.00 0.00 0.00 37 1012.2
20260902004526 75 136 3.0 5.0 0.00 0.00 0.00 33 1012.3
20260902003030 76 173 0.0 4.0 0.00 0.00 0.00 30 1012.5
20260902001508 77 123 1.0 9.0 0.00 0.00 0.00 26 1012.4
20260902000022 78 121 4.0 6.0 0.00 0.00 0.00 27 1012.6
20260901234517 79 312 1.0 4.0 0.00 0.00 0.00 24 1012.8
20260901233024 78 335 0.0 3.0 0.00 0.00 0.00 29 1013.0
20260901231533 78 53 2.0 3.0 0.00 0.00 0.00 27 1013.0
20260901230027 77 46 1.0 3.0 0.00 0.00 0.00 26 1013.2
20260901224520 77 85 0.0 4.0 0.00 0.00 0.00 25 1013.4
20260901223024 77 92 2.0 7.0 0.00 0.00 0.00 28 1013.5
20260901221526 77 9 1.0 3.0 0.00 0.00 0.00 27 1013.6
20260901220032 77 308 2.0 6.0 0.00 0.00 0.00 30 1013.9
20260901214512 77 251 4.0 9.0 0.00 0.00 0.00 28 1014.1
20260901213050 77 159 1.0 7.0 0.00 0.00 0.00 28 1014.2